Racecast

MHSAA Regional 4-1 - Host: Brownstone Woodhaven

Lake Erie Metro Park OFFICIAL · 5000m · Girls · Compiled · MI

116 runners from 2 divisions

These divisions were run separately. This is how their times compare, not how they finished — the places and scores below were never contested.

View full meet →

Team scores

Place Team Points 12345 67
1 Saline (MI) 36 1 2 9 11 13 17 19
2 Monroe (MI) 40 4 5 6 10 15 38 40
3 Ann Arbor Pioneer (MI) 91 3 20 21 22 25 37 41
4 Temperance Bedford (MI) 96 7 12 23 26 28 29 32
5 Ypsilanti Lincoln (MI) 116 8 14 18 33 43 59 60
6 Woodhaven Brownstown (MI) 165 27 30 31 35 42 47 65
7 Wyandotte Roosevelt (MI) 207 16 36 44 49 62 64
8 Allen Park (MI) 251 45 48 51 53 54 63
9 Belleville (MI) 251 39 46 50 55 61 66 67
10 Southgate Anderson (MI) 268 34 52 56 57 69 70
11 Dearborn Edsel Ford (MI) 293 24 58 68 71 72

Not scored, fewer than five finishers: Ypsilanti Community (4), Taylor Kennedy (Merged with Truman 2018) (4), Wayne Memorial (2)

Results

Place Athlete Grade School Time Rating Points Actual race
1 Alyssa Cummings 10 Saline (MI) 1 18:59.8 133.0 1 1
2 Amy Creutz 11 Saline (MI) 2 19:08.8 132.0 2 2
3 Rosanna Neuhausler 11 Ann Arbor Pioneer (MI) 1 19:16.7 131.1 3 3
4 Ashley Nichols 10 Monroe (CA) 1 19:27.1 129.9 4 4
5 Marina Aguilera 11 Monroe (CA) 2 19:30.8 129.5 5 5
6 Riley Delben 9 Monroe (CA) 3 19:31.8 129.4 6 6
7 Amanda Zittleman 12 Temperance Bedford (MI) 1 19:33.7 129.2 7 7
8 Marina Geider 9 Ypsilanti Lincoln (MI) 1 19:34.5 129.1 8 8
9 Mara Van Sickle 10 Saline (MI) 3 19:38.1 128.7 9 9
10 Keely Falk 9 Monroe (CA) 4 19:38.4 128.6 10 10
11 Elianna Shwayder 9 Saline (MI) 4 19:43.0 128.1 11 11
12 Kelsey Calhoun 11 Temperance Bedford (MI) 2 19:45.2 127.9 12 12
13 Emily Reyst 10 Saline (MI) 5 19:48.0 127.6 13 13
14 Emily Czinski 9 Ypsilanti Lincoln (MI) 2 19:49.8 127.4 14 14
15 Alicia Gillean 11 Monroe (CA) 5 19:50.9 127.3 15 15
16 Cara Smock 12 Wyandotte Roosevelt (MI) 1 19:55.8 126.8 16 16
17 Kristin Green 10 Saline (MI) 6 19:57.4 126.6 17 17
18 Adela Myles 9 Ypsilanti Lincoln (MI) 3 19:58.4 126.5 18 18
19 Amy Frauhammer 11 Saline (MI) 7 19:59.0 126.4 19 19
20 Marquerite Erkkinen 10 Ann Arbor Pioneer (MI) 2 20:00.0 126.3 20 20
21 Naomi Wilkin 9 Ann Arbor Pioneer (MI) 3 20:02.0 126.1 21 21
22 Sara Ryan 12 Ann Arbor Pioneer (MI) 4 20:06.3 125.7 22 22
23 Kourtney Osentoski 11 Temperance Bedford (MI) 3 20:11.3 125.2 23 23
24 Sarah Woolley 11 Dearborn Edsel Ford (MI) 1 20:14.2 124.8 24 24
25 Adrianna Tzalel 11 Ann Arbor Pioneer (MI) 5 20:17.8 124.5 25 25
26 Lauren Bules 10 Temperance Bedford (MI) 4 20:23.8 123.9 26 26
27 Cassie Breen 9 Woodhaven Brownstown (MI) 1 20:26.2 123.6 27 27
28 Emily Holmes 11 Temperance Bedford (MI) 5 20:30.7 123.2 28 28
29 Mariah Robinette 12 Temperance Bedford (MI) 6 20:33.3 122.9 29 29
30 Kim Ader 11 Woodhaven Brownstown (MI) 2 20:39.6 122.3 30 30
31 Kirsten Easton 12 Woodhaven Brownstown (MI) 3 20:51.3 121.2 31 31
32 Chloe Rick 10 Temperance Bedford (MI) 7 20:52.0 121.1 32 1
33 Anne Redd 11 Temperance Bedford (MI) 8 21:05.2 119.8 32
34 Alexa Geider 12 Ypsilanti Lincoln (MI) 4 21:07.5 119.6 33 33
35 Dakota Angileri 11 Southgate Anderson (MI) 1 21:10.2 119.3 34 34
36 Samantha Pendrick 10 Woodhaven Brownstown (MI) 4 21:15.6 118.8 35 35
37 Megan Sloan 12 Temperance Bedford (MI) 9 21:20.0 118.4 2
38 Maricella Ruiz 12 Wyandotte Roosevelt (MI) 2 21:21.3 118.3 36 36
39 Christine Lim 12 Ann Arbor Pioneer (MI) 6 21:24.7 118.0 37 37
40 Paige Bork 10 Monroe (CA) 6 21:24.9 118.0 38 38
41 Rachel Mayer 12 Temperance Bedford (MI) 10 21:27.0 117.8 3
42 Sammy Rohrback 12 Belleville (WI) 1 21:33.5 117.2 39 39
43 Natalie Johnson 12 Monroe (CA) 7 21:36.8 116.9 40 40
44 Kaitlyn Leist 9 Temperance Bedford (MI) 11 21:40.0 116.6 4
45 Sydney Bourque 10 Temperance Bedford (MI) 12 21:45.0 116.2 5
46 Katherine Hoevet 11 Ann Arbor Pioneer (MI) 7 21:50.3 115.7 41 41
47 Courtney Patterson 10 Woodhaven Brownstown (MI) 5 22:00.9 114.8 42 42
48 Mara Dornseifer 9 Ypsilanti Lincoln (MI) 5 22:03.1 114.6 43 43
49 Tracy Shuryan 10 Wyandotte Roosevelt (MI) 3 22:09.6 114.0 44 44
50 Brittany Gralak 10 Temperance Bedford (MI) 13 22:13.0 113.7 6
51 Jenny Perry 9 Temperance Bedford (MI) 14 22:13.0 113.7 7
52 Mallory Nemeth 12 Allen Park (MI) 1 22:16.9 113.4 45 45
53 Brieanna Schofield 10 Belleville (WI) 2 22:18.9 113.2 46 46
54 Jasmine Hardy 9 Woodhaven Brownstown (MI) 6 22:20.3 113.1 47 47
55 Emily Eccleton 9 Allen Park (MI) 2 22:23.7 112.8 48 48
56 Mackenzie Davison 9 Monroe (CA) 8 22:26.0 112.6 8
57 Mallory McCormick 10 Wyandotte Roosevelt (MI) 4 22:38.8 111.6 49 49
58 Ryann Patton 10 Belleville (WI) 3 22:49.3 110.7 50 50
59 Kaitlyn Sheets 11 Allen Park (MI) 3 22:53.6 110.4 51 51
60 Jessica Kreger 9 Temperance Bedford (MI) 15 23:08.0 109.2 9
61 Emily Green 12 Temperance Bedford (MI) 16 23:10.0 109.1 10
62 Mary Roach 12 Ypsilanti Community (MI) 1 23:11.3 109.0 52
63 Mariah Jackson 12 Taylor Kennedy (Merged with Truman 2018) (MI) 1 23:12.9 108.8 53
64 Rebecca Michelski 10 Southgate Anderson (MI) 2 23:14.0 108.8 52 54
65 Caitlyn Gore 12 Temperance Bedford (MI) 17 23:18.0 108.4 11
66 Hailey Lazarek 9 Allen Park (MI) 4 23:19.2 108.3 53 55
67 Emily Galloway 11 Allen Park (MI) 5 23:23.6 108.0 54 56
68 Lindsay Smith 10 Belleville (WI) 4 23:34.5 107.2 55 57
69 Kayla Smith 10 Southgate Anderson (MI) 3 23:36.5 107.0 56 58
70 Tinara Moore 9 Southgate Anderson (MI) 4 23:40.8 106.7 57 59
71 Jennifer Ferrante 12 Dearborn Edsel Ford (MI) 2 23:41.9 106.6 58 60
72 Annie Valade 10 Temperance Bedford (MI) 18 23:44.0 106.5 12
73 Erin Russell 11 Monroe (CA) 9 23:46.0 106.3 13
74 Sara Mousseau 12 Taylor Kennedy (Merged with Truman 2018) (MI) 2 23:48.7 106.1 61
75 Kara Vensel 11 Monroe (CA) 10 23:52.0 105.9 14
76 Alexis Guziel 9 Ypsilanti Lincoln (MI) 6 23:53.2 105.8 59 62
77 Emily Woods 9 Temperance Bedford (MI) 19 23:55.0 105.6 15
78 Kira Crawley 9 Ypsilanti Community (MI) 2 23:57.5 105.5 63
79 Lissa Adamovicz 11 Ypsilanti Lincoln (MI) 7 24:04.4 105.0 60 64
80 Vanessa Geiger 9 Temperance Bedford (MI) 20 24:05.0 104.9 16
81 Jordan Burman 11 Monroe (CA) 11 24:10.0 104.6 17
82 Whitney Hicks 11 Belleville (WI) 5 24:19.2 103.9 61 65
83 Megan Brady 11 Monroe (CA) 12 24:23.0 103.6 18
84 Kala Isham 12 Wyandotte Roosevelt (MI) 5 24:27.4 103.3 62 66
85 Michelle Samson 12 Allen Park (MI) 6 24:31.1 103.1 63 67
86 Ali Baker 9 Temperance Bedford (MI) 21 24:35.0 102.8 19
87 Grace Clark 9 Wyandotte Roosevelt (MI) 6 24:41.0 102.4 64 68
88 Olivia Heator 11 Ypsilanti Community (MI) 3 24:41.4 102.3 69
89 Megan Macek 9 Wayne Memorial (MI) 1 24:52.8 101.6 70
90 Val Gonzalez 12 Woodhaven Brownstown (MI) 7 24:55.0 101.4 65 20
91 Sam Mall 9 Belleville (WI) 6 25:04.9 100.7 66 71
92 Madeline Szymanski 9 Temperance Bedford (MI) 22 25:20.0 99.7 21
93 Kourtney Ford 11 Taylor Kennedy (Merged with Truman 2018) (MI) 3 25:24.8 99.4 72
94 Gessika Thurman 12 Belleville (WI) 7 25:28.5 99.2 67 73
95 Allison Range 11 Dearborn Edsel Ford (MI) 3 25:28.9 99.2 68 74
96 Madi Panning 10 Temperance Bedford (MI) 23 25:33.0 98.9 22
97 Chelsea Pingston 10 Southgate Anderson (MI) 5 25:33.4 98.9 69 75
98 Samantha Winters 12 Ypsilanti Lincoln (MI) 8 25:36.0 98.7 23
99 Abbie Waidelich 9 Southgate Anderson (MI) 6 25:38.1 98.6 70 76
100 Nikia Taylor 11 Taylor Kennedy (Merged with Truman 2018) (MI) 4 25:45.4 98.1 77
101 Carneysha McGee 11 Ypsilanti Community (MI) 4 25:49.2 97.8 78
102 Tiffany Tyler 10 Woodhaven Brownstown (MI) 8 26:13.0 96.4 24
103 Shelby Crow 10 Ypsilanti Lincoln (MI) 9 26:23.0 95.8 25
104 Elizabeth Burns 11 Ypsilanti Lincoln (MI) 10 26:28.0 95.5 26
105 Raj Kaur 9 Woodhaven Brownstown (MI) 9 26:31.0 95.3 27
106 Amalie Farah 10 Temperance Bedford (MI) 24 26:45.0 94.4 28
107 Chelsea Ravasani-asl 12 Dearborn Edsel Ford (MI) 4 26:57.3 93.7 71 79
108 Leah Shear 10 Temperance Bedford (MI) 25 27:03.0 93.4 29
109 Hannah Wagner 10 Temperance Bedford (MI) 26 27:11.0 92.9 30
110 Rachelle Budop 10 Woodhaven Brownstown (MI) 10 28:46.0 87.8 31
111 Kellie Finley 9 Monroe (CA) 13 28:52.0 87.5 32
112 Lindsey Ravasani-Asl 12 Dearborn Edsel Ford (MI) 5 28:54.2 87.4 72 80
113 Laura Campbell 11 Woodhaven Brownstown (MI) 11 29:01.0 87.1 33
114 Jessica Buford 12 Temperance Bedford (MI) 27 29:20.0 86.1 34
115 Sydney Ball 10 Wayne Memorial (MI) 2 29:33.6 85.5 81
116 Amy Blicharski 11 Woodhaven Brownstown (MI) 12 30:10.0 83.8 35